Вернуться в каталог

DMSP 5D-2 F11 DEB

АктивенPO
NORAD 28325·DEBRIS·🇺🇸 United States

Запущен Nov 28, 1991 с Vandenberg Space Force Base

Loading…

Ближайшие Пролёты (ближайшие 24 часа)

TLE

СвежийSource: Space-Track

Эпоха: Sep 14, 2026, 16:15 UTC

1 28325U 91082AN  26257.67772581  .00030749  00000-0  31467-2 0  9991
2 28325  98.5591 155.0880 0019477 188.2007 201.7419 14.90313657156162

Отслеживайте DMSP 5D-2 F11 DEB в реальном времени с AllMySat

Download on the App Store